Weather History for Orlando, FL

Change the Weather History Date:

Monday, April 29, 2013

  Actual Average Record
Temperature  
Mean Temperature 75 °F -  
Max Temperature 84 °F 82 °F 89 °F (2002)
Min Temperature 66 °F 62 °F 57 °F (2005)
Cooling Degree Days 10    
Growing Degree Days 25 (Base 50)    
Moisture  
Dew Point 65 °F    
Average Humidity 78    
Maximum Humidity 94    
Minimum Humidity 45    
Precipitation  
Precipitation 1.18 in - - ()
Sea Level Pressure  
Sea Level Pressure 30.00 in    
Wind  
Wind Speed 6 mph (SSE)    
Max Wind Speed 13 mph    
Max Gust Speed 18 mph    
Visibility 8 miles    
Events Rain , Thunderstorm    
Averages and records for this station are not official NWS values.
T = Trace of Precipitation, MM = Missing Value Source: NWS Daily Summary

Daily Weather History Graph

Daily Weather History Graph

Search for Another Location

Airport:

Trip Planner

Search our weather history database for the weather conditions in past years. The results will help you decide how hot, cold, wet, or windy it might be!

Date:

Astronomy

Apr. 29, 2013 Rise Set
Actual Time 6:46 AM EDT 7:59 PM EDT
Civil Twilight 6:21 AM EDT 8:24 PM EDT
Nautical Twilight 5:51 AM EDT 8:53 PM EDT
Astronomical Twilight 5:21 AM EDT 9:24 PM EDT
Moon No Moon Rise 10:13 AM EDT (4/29)
Length of Visible Light 14h 03m
Length of Day
13h 13m
Waning Gibbous, 80% of the Moon is Illuminated
Apr 29
Waning Gibbous
May 2
Last Quarter
May 9
New
May 18
First Quarter
May 25
Full

Hourly Weather History & Observations

Time (EDT) Temp. Heat Index Dew Point Humidity Pressure Visibility Wind Dir Wind Speed Gust Speed Precip Events Conditions
12:53 AM 69.1 °F - 62.1 °F 78% 30.06 in 10.0 mi SSE 5.8 mph - N/A   Clear
1:53 AM 68.0 °F - 63.0 °F 84% 30.05 in 10.0 mi SSE 6.9 mph - N/A   Clear
2:53 AM 68.0 °F - 63.0 °F 84% 30.03 in 10.0 mi SE 8.1 mph - N/A   Clear
3:53 AM 66.9 °F - 63.0 °F 87% 30.02 in 10.0 mi SE 6.9 mph - N/A   Clear
4:53 AM 68.0 °F - 63.0 °F 84% 30.01 in 10.0 mi SSE 5.8 mph - N/A   Clear
5:40 AM 68.0 °F - 64.4 °F 88% 30.02 in 10.0 mi Calm Calm - N/A   Mostly Cloudy
5:53 AM 68.0 °F - 64.0 °F 87% 30.03 in 10.0 mi Calm Calm - N/A   Mostly Cloudy
6:01 AM 68.0 °F - 62.6 °F 83% 30.02 in 10.0 mi Calm Calm - N/A   Scattered Clouds
6:53 AM 66.9 °F - 63.0 °F 87% 30.04 in 10.0 mi SE 3.5 mph - N/A   Scattered Clouds
7:53 AM 69.1 °F - 64.9 °F 87% 30.05 in 10.0 mi SE 4.6 mph - N/A   Clear
8:53 AM 73.0 °F - 66.0 °F 79% 30.06 in 10.0 mi South 8.1 mph - N/A   Clear
9:53 AM 78.1 °F - 64.9 °F 64% 30.06 in 10.0 mi SSE 12.7 mph - N/A   Scattered Clouds
10:53 AM 79.0 °F - 62.1 °F 56% 30.05 in 10.0 mi South 12.7 mph - N/A   Scattered Clouds
11:53 AM 81.0 °F 81.6 °F 60.1 °F 49% 30.05 in 10.0 mi SSE 10.4 mph - N/A   Clear
12:53 PM 81.0 °F 81.7 °F 61.0 °F 50% 30.04 in 10.0 mi South 10.4 mph - N/A   Mostly Cloudy
1:53 PM 82.0 °F 82.1 °F 59.0 °F 45% 30.02 in 10.0 mi SW 8.1 mph - N/A   Mostly Cloudy
2:53 PM 82.0 °F 82.1 °F 59.0 °F 45% 29.99 in 10.0 mi SSW 8.1 mph - N/A   Clear
3:53 PM 82.9 °F 83.3 °F 61.0 °F 47% 29.96 in 10.0 mi Variable 5.8 mph - N/A   Clear
4:53 PM 84.0 °F 84.5 °F 62.1 °F 47% 29.94 in 10.0 mi Variable 3.5 mph - N/A   Clear
5:53 PM 82.9 °F 83.3 °F 61.0 °F 47% 29.93 in 10.0 mi SW 4.6 mph - N/A   Mostly Cloudy
6:53 PM 80.1 °F 82.7 °F 68.0 °F 67% 29.94 in 10.0 mi ESE 12.7 mph - N/A   Mostly Cloudy
7:26 PM 75.2 °F - 69.8 °F 83% 29.92 in 3.0 mi ESE 11.5 mph - 0.04 in Rain , Thunderstorm Thunderstorms and Rain
7:41 PM 75.2 °F - 69.8 °F 83% 29.92 in 10.0 mi East 5.8 mph - 0.04 in Rain , Thunderstorm Thunderstorms and Rain
7:49 PM 75.2 °F - 71.6 °F 89% 29.92 in 10.0 mi East 4.6 mph - 0.04 in   Overcast
7:53 PM 75.9 °F - 71.1 °F 85% 29.94 in 10.0 mi East 4.6 mph - 0.04 in   Overcast
8:00 PM 75.2 °F - 69.8 °F 83% 29.93 in 10.0 mi East 6.9 mph - 0.00 in Rain , Thunderstorm Light Thunderstorms and Rain
8:44 PM 69.8 °F - 66.2 °F 88% 29.98 in 1.8 mi WSW 4.6 mph - 0.36 in Rain , Thunderstorm Heavy Thunderstorms and Rain
8:48 PM 69.8 °F - 66.2 °F 88% 29.98 in 0.8 mi SSW 5.8 mph - 0.53 in Rain , Thunderstorm Heavy Thunderstorms and Rain
8:53 PM 69.1 °F - 66.9 °F 93% 29.98 in 0.8 mi Variable 3.5 mph - 0.70 in Rain , Thunderstorm Heavy Thunderstorms and Rain
9:00 PM 69.8 °F - 66.2 °F 88% 29.97 in 2.0 mi SE 8.1 mph - 0.06 in Rain , Thunderstorm Thunderstorms and Rain
9:03 PM 69.8 °F - 66.2 °F 88% 29.97 in 4.0 mi SE 9.2 mph - 0.06 in Rain , Thunderstorm Light Thunderstorms and Rain
9:53 PM 69.1 °F - 66.9 °F 93% 29.99 in 5.0 mi ESE 9.2 mph - 0.11 in Rain , Thunderstorm Heavy Thunderstorms and Rain
10:20 PM 69.8 °F - 66.2 °F 88% 29.99 in 10.0 mi SSE 6.9 mph - 0.02 in Rain , Thunderstorm Light Rain
10:37 PM 69.8 °F - 68.0 °F 94% 30.00 in 2.5 mi SSW 8.1 mph 18.4 mph 0.20 in Rain Heavy Rain
10:39 PM 69.8 °F - 66.2 °F 88% 30.00 in 1.8 mi Variable 5.8 mph 18.4 mph 0.22 in Rain , Thunderstorm Heavy Rain
10:48 PM 69.8 °F - 66.2 °F 88% 29.99 in 3.0 mi Calm Calm - 0.25 in Rain , Thunderstorm Light Thunderstorms and Rain
10:53 PM 69.1 °F - 66.0 °F 90% 30.01 in 8.0 mi SW 5.8 mph - 0.25 in Rain , Thunderstorm Light Thunderstorms and Rain
11:33 PM 69.8 °F - 64.4 °F 83% 29.98 in 10.0 mi Calm Calm - 0.08 in   Partly Cloudy
11:53 PM 69.1 °F - 66.9 °F 93% 30.00 in 10.0 mi South 6.9 mph - 0.08 in   Partly Cloudy